Location: Atherton
(17.2661°S, 145.4859°E)
Time: 23:06:41
(UTC+10:00)

Vanguard 1 - Pass Details

Date: 29 June 2025
Orbit: 649 x 3822 km, 34.2° (Epoch: 17 July)

Event Time Altitude Azimuth Distance (km) Brightness Sun altitude
Rises 02:55:48 0° 254° (WSW) 3,238 - -53.4°
Reaches altitude 10° 02:58:45 10° 269° (W) 2,133 - -52.7°
Maximum altitude 03:02:26 23° 323° (NW) 1,354 - -51.9°
Drops below altitude 10° 03:06:04 10° 17° (NNE) 2,105 - -51.1°
Sets 03:08:59 0° 32° (NNE) 3,185 - -50.4°
